{"data":{"norad_id":57777,"epoch":"2026-09-20T11:07:20.835840Z","epoch_age_seconds":134438,"freshness":"FRESH","line1":"1 57777U 23134G   26263.46343560 -.00000217  00000+0  16081-5 0  9997","line2":"2 57777  42.9990 178.0011 0000539 270.2817  89.7973 15.27577181169249","mean_motion":15.27577181,"eccentricity":5.39e-5,"inclination_deg":42.999,"raan_deg":178.0011,"arg_perigee_deg":270.2817,"mean_anomaly_deg":89.7973,"bstar":1.6081e-6,"rev_number":16924,"period_min":94.266922674069,"perigee_km":482.68771876721,"apogee_km":483.42735553832,"semimajor_km":6861.1945371528,"source":"CELESTRAK","updated_at":"2026-09-21T09:00:33.684703Z"}}